Tracking 28799 objects as of 18-Apr-2024
HD Live streaming from Space Station
objects crossing your sky now

COSMOS 713

Track COSMOS 713 now!
10-day predictions
COSMOS 713 is classified as:


NORAD ID: 7680
Int'l Code: 1975-016C
Perigee: 1,402.0 km
Apogee: 1,494.2 km
Inclination: 74.0 °
Period: 114.7 minutes
Semi major axis: 7819 km
RCS: 0.6922 m2 (medium)
Launch date: February 28, 1975
Source: Commonwealth of Independent States (former USSR) (CIS)
Launch site: PLESETSK MISSILE AND SPACE COMPLEX (PKMTR)
Your satellite tracking list
Your tracking list is empty




NASA's NSSDC Master Catalog

Two Line Element Set (TLE):
1 07680U 75016C   24108.82037358 -.00000006  00000-0  63633-4 0  9993
2 07680  74.0074   1.8931 0058960 264.3251 161.0915 12.55654746252195
Source of the keplerian elements: AFSPC